SCP
0 0 0 0 0 0 0 0 0 0 0 0 0 0 0 0 0 0 0 0 0 0 0 0 0 0 0 0 0 0 0 0 0 0 0 0 0 0 0 0 0 0 0 0 0 0 0 0 0
0 0 0 0 0 0 0 0 0 0 0 0 0 0 0 0 0 0 0 0 0 0 0 0 0 0 0 0 0 0 0 0 0 0 0 0 0 0 0 0 0 0 0 0 0 0 0 0 0
0 0 0 0 0 0 0 0 0 0 0 0 0 0 0 0 0 0 0 0 0 0 0 0 0 0 0 0 0 0 0 0 0 0 0 0 0 0 0 0 0 0 0 0 0 0 0 0 0
0 0 0 0 0 0 0 0 0 0 0 0 0 0 0 0 0 0 0 0 0 0 0 0 0 0 0 0 0 0 0 0 0 0 0 0 0 0 0 0 0 0 0 0 0 0 0 0 0
0 0 0 0 0 0 0 0 0 0 0 0 0 0 0 0 0 0 0 0 0 0 0 0 0 0 0 0 0 0 0 0 0 0 0 0 0 0 0 0 0 0 0 0 0 0 0 0 0
0 0 0 0 0 0 0 0 0 0 0 0 0 0 0 0 0 0 0 0 0 0 0 0 0 0 0 0 0 0 0 0 0 0 0 0 0 0 0 0 0 0 0 0 0 0 0 0 0
0 0 0 0 0 0 0 0 0 0 0 0 0 0 0 0 0 0 0 0 0 0 0 0 0 0 0 0 0 0 0 0 0 0 0 0 0 0 0 0 0 0 0 0 0 0 0 0 0
0 0 0 0 0 0 0 0 0 0 0 0 0 0 0 0 0 0 0 0 0 0 0 0 0 0 0 0 0 0 0 0 0 0 0 0 0 0 0 0 0 0 0 0 0 0 0 0 0
0 0 0 0 0 0 0 0 0 0 0 0 0 0 0 0 0 0 0 0 0 0 0 0 0 0 0 0 0 0 0 0 0 0 0 0 0 0 0 0 0 0 0 0 0 0 0 0 0
0 0 0 0 0 0 0 0 0 0 0 0 0 0 0 0 0 0 0 0 0 0 0 0 0 0 0 0 0 0 0 0 0 0 0 0 0 0 0 0 0 0 0 0 0 0 0 0 0
0 0 0 0 0 0 0 0 0 0 0 0 0 0 0 0 0 0 0 0 0 0 0 0 0 0 0 0 0 0 0 0 0 0 0 0 0 0 0 0 0 0 0 0 0 0 0 0 0
0 0 0 0 0 0 0 0 0 0 0 0 0 0 0 0 0 0 0 0 0 0 0 0 0 0 0 0 0 0 0 0 0 0 0 0 0 0 0 0 0 0 0 0 0 0 0 0 0
0 0 0 0 0 0 0 0 0 0 0 0 0 0 0 0 0 0 0 0 0 0 0 0 0 0 0 0 0 0 0 0 0 0 0 0 0 0 0 0 0 0 0 0 0 0 0 0 0
0 0 0 0 0 0 0 0 0 0 0 0 0 0 0 0 0 0 0 0 0 0 0 0 0 0 0 0 0 0 0 0 0 0 0 0 0 0 0 0 0 0 0 0 0 0 0 0 0
0 0 0 0 0 0 0 0 0 0 0 0 0 0 0 0 0 0 0 0 0 0 0 0 0 0 0 0 0 0 0 0 0 0 0 0 0 0 0 0 0 0 0 0 0 0 0 0 0
0 0 0 0 0 0 0 0 0 0 0 0 0 0 0 0 0 0 0 0 0 0 0 0 0 0 0 0 0 0 0 0 0 0 0 0 0 0 0 0 0 0 0 0 0 0 0 0 0
0 0 0 0 0 0 0 0 0 0 0 0 0 0 0 0 0 0 0 0 0 0 0 0 0 0 0 0 0 0 0 0 0 0 0 0 0 0 0 0 0 0 0 0 0 0 0 0 0
0 0 0 0 0 0 0 0 0 0 0 0 0 0 0 0 0 0 0 0 0 0 0 0 0 0 0 0 0 0 0 0 0 0 0 0 0 0 0 0 0 0 0 0 0 0 0 0 0
0 0 0 0 0 0 0 0 0 0 0 0 0 0 0 0 0 0 0 0 0 0 0 0 0 0 0 0 0 0 0 0 0 0 0 0 0 0 0 0 0 0 0 0 0 0 0 0 0
0 0 0 0 0 0 0 0 0 0 0 0 0 0 0 0 0 0 0 0 0 0 0 0 0 0 0 0 0 0 0 0 0 0 0 0 0 0 0 0 0 0 0 0 0 0 0 0 0
0 0 0 0 0 0 0 0 0 0 0 0 0 0 0 0 0 0 0 0 0 0 0 0 0 0 0 0 0 0 0 0 0 0 0 0 0 0 0 0 0 0 0 0 0 0 0 0 0
0 0 0 0 0 0 0 0 0 0 0 0 0 0 0 0 0 0 0 0 0 0 0 0 0 0 0 0 0 0 0 0 0 0 0 0 0 0 0 0 0 0 0 0 0 0 0 0 0
0 0 0 0 0 0 0 0 0 0 0 0 0 0 0 0 0 0 0 0 0 0 0 0 0 0 0 0 0 0 0 0 0 0 0 0 0 0 0 0 0 0 0 0 0 0 0 0 0
0 0 0 0 0 0 0 0 0 0 0 0 0 0 0 0 0 0 0 0 0 0 0 0 0 0 0 0 0 0 0 0 0 0 0 0 0 0 0 0 0 0 0 0 0 0 0 0 0
0 0 0 0 0 0 0 0 0 0 0 0 0 0 0 0 0 0 0 0 0 0 0 0 0 0 0 0 0 0 0 0 0 0 0 0 0 0 0 0 0 0 0 0 0 0 0 0 0
0 0 0 0 0 0 0 0 0 0 0 0 0 0 0 0 0 0 0 0 0 0 0 0 0 0 0 0 0 0 0 0 0 0 0 0 0 0 0 0 0 0 0 0 0 0 0 0 0
0 0 0 0 0 0 0 0 0 0 0 0 0 0 0 0 0 0 0 0 0 0 0 0 0 0 0 0 0 0 0 0 0 0 0 0 0 0 0 0 0 0 0 0 0 0 0 0 0
0 0 0 0 0 0 0 0 0 0 0 0 0 0 0 0 0 0 0 0 0 0 0 0 0 0 0 0 0 0 0 0 0 0 0 0 0 0 0 0 0 0 0 0 0 0 0 0 0
0 0 0 0 0 0 0 0 0 0 0 0 0 0 0 0 0 0 0 0 0 0 0 0 0 0 0 0 0 0 0 0 0 0 0 0 0 0 0 0 0 0 0 0 0 0 0 0 0
0 0 0 0 0 0 0 0 0 0 0 0 0 0 0 0 0 0 0 0 0 0 0 0 0 0 0 0 0 0 0 0 0 0 0 0 0 0 0 0 0 0 0 0 0 0 0 0 0
Wind_Speed
7 5 2 1 4 5 3 3 1 3 3 3 4 6 6 4 2 2 0 2 2 2 2 4 6 7 8 9 9 9 10 11 11 11 12 12 12 12 12 12 12 11 11 11 11 11 10 10 10
5 4 1 2 5 3 3 3 3 3 3 3 4 5 6 4 3 3 1 1 3 3 2 4 7 7 8 8 9 9 10 11 11 11 11 11 11 11 11 11 11 11 10 10 10 10 9 9 9
4 3 2 4 3 2 0 2 4 4 3 2 4 4 4 3 2 2 2 3 3 2 2 4 7 7 8 8 8 9 9 10 10 10 10 10 10 10 11 11 10 10 10 10 10 9 9 9 9
2 1 3 4 3 1 2 2 3 4 4 5 4 4 4 3 2 2 4 4 3 2 2 3 7 7 7 8 8 9 9 9 10 9 9 9 10 10 10 10 9 9 9 9 8 8 8 8 7
2 3 5 4 3 2 2 2 2 4 3 4 4 4 3 3 5 6 4 3 3 1 1 3 6 7 7 8 8 8 9 9 9 8 9 9 9 9 9 8 8 8 8 7 7 7 6 6 6
3 4 5 2 2 2 2 2 3 5 4 4 4 3 2 2 4 3 3 2 2 1 1 2 6 7 7 8 8 8 8 8 8 8 9 8 8 8 7 7 7 7 7 6 6 6 5 5 4
3 4 2 2 1 1 1 2 3 4 4 3 3 4 1 1 2 3 2 3 2 2 1 1 2 4 7 7 7 7 8 8 7 7 7 7 7 7 6 5 5 6 6 6 5 4 4 3 3
3 4 2 1 2 1 1 2 3 4 3 3 3 4 2 2 3 4 4 3 3 3 2 2 2 2 2 3 7 8 8 7 7 6 6 6 6 5 5 4 4 5 5 4 4 3 3 2 2
3 4 1 2 3 2 2 3 2 3 5 2 3 3 4 7 6 5 4 4 3 2 3 2 3 3 3 2 4 5 6 6 5 4 5 5 3 3 2 3 4 4 3 3 3 2 2 3 2
3 2 3 3 4 4 3 3 3 4 3 3 5 6 8 7 6 5 4 3 2 2 1 2 2 3 2 2 3 2 3 3 3 3 3 3 2 1 2 2 2 2 2 2 2 2 2 3 2
3 3 2 1 4 6 5 4 3 6 2 3 6 8 8 7 5 4 4 3 2 2 1 2 2 3 3 2 2 2 2 2 3 3 3 2 2 2 2 1 1 2 2 2 2 2 2 2 1
2 2 2 2 4 5 5 5 4 2 2 5 8 9 8 7 5 5 4 3 3 2 2 1 2 2 2 2 2 2 2 2 2 2 2 2 1 2 2 1 1 1 1 1 2 1 2 2 1
1 0 2 4 5 5 6 4 4 2 4 8 9 8 8 7 5 3 3 3 3 2 2 1 2 2 2 2 1 2 2 1 1 1 2 2 2 1 1 1 1 1 1 2 1 1 2 1 1
1 3 4 4 5 3 6 4 3 2 6 8 8 7 6 5 5 4 3 3 3 3 2 2 2 2 2 2 2 2 2 1 1 1 1 2 2 1 1 1 1 1 1 1 1 1 1 1 1
3 5 5 3 3 2 5 3 1 4 7 7 6 6 5 4 5 5 5 5 4 3 3 3 3 3 2 2 2 1 1 2 1 1 1 2 2 2 1 1 1 1 1 1 1 2 2 1 2
4 5 3 2 1 3 5 2 2 6 7 6 6 5 5 4 5 5 5 4 4 4 4 3 3 3 3 2 2 2 2 2 1 1 1 1 2 2 2 1 0 1 1 1 1 1 2 1 2
5 2 0 1 1 3 3 3 2 6 7 6 6 5 5 4 4 4 5 5 5 5 5 4 3 4 3 3 2 2 2 2 1 1 1 1 2 2 2 1 1 1 1 1 1 1 1 1 1
1 1 1 2 3 4 3 3 4 6 7 6 5 5 5 6 6 5 5 5 5 5 4 4 3 3 3 3 2 2 2 1 1 1 1 1 1 2 2 1 1 1 1 1 1 1 1 1 1
4 2 2 3 2 3 4 4 5 7 6 6 6 6 7 7 5 5 5 5 5 5 5 4 4 3 3 2 2 2 1 1 1 1 1 1 1 2 2 1 1 1 1 1 2 2 2 2 1
3 2 2 2 1 3 2 2 3 6 9 8 9 9 8 6 5 5 5 5 5 6 6 5 5 4 3 2 2 2 2 1 1 1 1 1 1 1 1 1 1 1 1 2 1 2 2 1 1
2 4 4 2 1 3 2 3 2 3 4 4 6 6 7 9 8 7 7 6 6 6 6 6 5 5 4 3 3 2 2 2 1 1 1 0 0 0 1 1 2 2 2 2 1 2 2 1 1
3 4 4 2 3 1 1 2 5 4 4 6 7 7 9 8 8 7 8 8 7 7 5 5 5 4 4 4 4 4 3 2 2 1 0 0 0 0 1 1 2 2 2 2 1 2 2 2 1
4 2 3 3 3 2 2 1 7 1 5 9 9 9 9 9 9 9 9 8 7 6 6 5 5 4 4 4 5 4 3 2 1 1 0 0 1 1 0 1 1 1 1 1 1 1 2 2 2
4 6 6 5 5 1 2 2 7 4 8 7 9 9 9 9 9 8 7 6 6 6 6 5 6 5 5 5 4 5 4 4 3 2 1 0 0 0 0 1 1 1 1 1 1 1 2 1 2
5 6 4 4 4 5 2 2 9 7 7 8 9 11 10 9 8 8 8 8 7 7 7 7 7 6 5 5 5 5 5 5 5 3 3 2 1 1 1 1 1 1 1 1 1 2 1 2 2
3 8 7 4 4 5 1 5 8 5 4 4 6 7 8 8 8 8 9 9 9 9 8 8 8 7 6 6 5 5 5 4 3 3 3 3 2 2 1 1 1 1 1 1 1 1 1 1 2
6 3 5 7 2 1 5 6 8 2 1 1 3 5 8 9 10 9 9 8 9 9 9 9 9 7 7 6 6 5 5 5 4 3 3 2 2 2 2 2 1 1 1 1 2 1 1 1 1
5 8 6 6 5 2 5 4 5 4 3 2 4 7 8 8 8 8 8 8 8 8 8 8 8 8 7 6 6 5 5 5 4 3 3 3 2 2 1 1 1 1 1 1 1 1 1 1 0
4 4 5 4 5 6 3 8 7 7 6 6 7 7 7 8 9 9 7 7 7 6 7 7 7 6 5 6 5 4 4 4 4 4 4 4 3 3 2 2 2 2 1 1 2 1 1 1 0
4 6 8 6 4 4 4 9 5 5 5 5 5 5 5 6 7 7 7 6 6 7 7 7 7 7 6 6 5 5 4 4 4 4 4 4 3 3 3 2 2 2 2 2 2 2 2 2 1
Wind_Direction
161 146 145 109 54 47 20 347 46 48 50 41 63 78 87 74 88 129 238 121 96 93 95 115 120 121 118 118 118 118 117 116 115 114 119 123 123 123 122 120 118 118 117 115 114 113 115 116 116
149 159 153 55 68 50 348 348 61 58 117 128 69 68 72 63 62 94 100 140 103 104 100 116 125 122 123 123 122 121 118 118 117 116 116 123 126 126 125 122 121 121 118 116 115 114 115 115 116
168 188 81 65 75 125 71 18 86 84 85 63 66 55 66 71 90 111 163 137 98 96 110 131 131 128 128 126 126 124 120 120 119 118 118 119 119 124 126 125 125 123 120 118 117 115 113 112 113
155 70 55 59 46 312 170 136 120 97 49 45 72 58 55 54 114 123 121 118 100 97 113 136 134 135 135 135 132 128 125 122 121 120 119 119 120 120 122 124 122 121 120 119 117 114 112 115 116
80 75 57 41 16 4 56 98 80 76 53 48 65 71 41 26 84 101 109 109 114 107 115 139 140 142 143 141 138 134 129 127 125 124 121 120 120 120 120 120 121 121 119 118 115 112 112 115 115
57 63 71 53 18 33 50 62 79 77 78 68 64 70 41 63 95 105 101 97 105 120 141 150 151 146 144 143 142 139 134 133 131 129 125 124 123 122 121 121 125 126 123 120 117 113 110 111 115
92 79 99 121 89 50 93 65 84 92 83 68 87 83 65 72 100 107 99 91 77 69 74 89 127 140 145 144 143 143 139 138 135 133 130 129 127 126 127 129 128 127 125 123 118 108 103 103 108
123 93 69 96 124 156 114 80 84 92 88 93 89 117 166 178 112 94 80 76 67 56 59 79 86 96 111 132 142 143 141 139 136 137 134 127 121 119 122 122 129 130 128 123 116 111 100 90 97
97 72 113 190 165 164 126 102 85 77 93 74 65 103 130 125 111 96 82 69 71 71 49 66 83 90 92 109 132 132 133 132 128 128 124 103 74 73 92 117 135 134 127 119 114 112 99 81 80
93 108 225 197 165 147 127 114 124 100 86 65 68 78 108 119 122 119 119 124 118 100 65 65 81 86 90 99 84 73 78 76 72 72 80 75 71 61 76 107 134 126 113 102 88 86 80 71 55
143 188 222 127 142 132 124 118 96 118 126 160 143 136 132 129 129 134 138 138 142 128 106 92 86 83 84 75 82 74 67 66 68 74 80 81 65 48 46 63 70 56 59 48 46 51 56 61 59
156 243 157 134 122 122 132 126 103 123 178 149 142 141 143 147 156 163 158 153 136 132 135 116 99 91 85 81 82 87 82 77 79 82 93 94 80 57 49 61 61 58 57 58 46 44 52 54 48
110 350 80 104 98 107 106 104 111 96 112 119 126 134 148 159 167 165 150 140 142 153 162 146 123 112 103 94 89 99 103 106 99 92 94 108 105 88 74 58 54 54 66 72 63 50 51 45 37
86 77 70 81 89 92 104 94 95 133 126 128 137 146 154 162 160 149 148 155 162 168 163 138 131 131 119 110 100 98 102 104 96 95 101 109 112 113 101 75 58 54 62 72 73 59 54 44 41
76 73 52 48 72 106 102 69 158 151 138 142 152 155 155 159 154 164 173 172 174 174 162 154 151 134 131 126 121 108 100 99 102 101 103 116 124 129 119 97 55 31 51 65 61 55 59 50 49
49 60 51 311 110 128 117 210 211 149 150 157 165 166 166 170 171 177 172 167 165 157 153 162 164 141 139 131 121 104 102 105 99 92 93 119 127 128 120 118 94 52 78 89 89 73 67 52 49
35 64 219 291 207 144 143 213 185 155 163 171 174 176 176 178 181 182 177 170 164 160 155 154 150 140 138 126 114 106 101 93 88 85 90 109 122 133 135 146 136 99 99 94 108 93 109 91 69
208 217 244 234 222 149 176 220 176 170 179 185 182 183 183 191 200 187 179 170 164 156 150 148 140 137 129 114 99 84 80 74 74 86 83 103 118 130 136 139 119 111 106 87 93 104 85 91 88
154 179 234 243 207 155 200 223 199 180 186 192 193 195 199 205 199 178 174 170 161 154 151 154 149 149 134 118 121 114 123 121 99 110 119 126 124 124 126 110 95 107 125 140 140 128 103 79 90
156 184 242 281 157 150 191 244 213 193 203 202 198 200 203 200 187 182 176 175 174 173 170 164 168 164 160 150 143 136 131 127 119 66 64 84 107 126 144 147 144 143 134 118 120 126 116 90 86
197 192 208 205 41 46 75 340 258 231 213 212 209 202 202 201 196 191 186 186 181 184 184 180 177 172 169 152 120 99 76 58 55 41 25 18 93 142 142 151 153 146 142 148 152 147 138 136 73
240 218 183 142 93 331 93 281 279 227 221 223 218 205 205 205 197 193 190 186 187 190 180 174 172 171 169 156 150 150 152 163 194 187 229 330 61 70 144 150 148 142 144 155 170 144 141 141 142
211 120 103 100 114 43 24 159 287 211 236 236 222 211 206 198 192 194 196 190 186 179 176 175 166 169 168 166 166 156 158 169 157 128 97 8 15 3 14 140 141 145 147 153 144 131 137 149 154
126 71 58 50 67 359 249 176 277 226 221 229 217 210 202 193 191 194 190 177 177 172 172 169 168 179 174 170 166 165 168 163 156 169 178 217 267 320 334 147 149 155 154 162 172 164 158 155 149
92 89 43 9 11 259 255 203 251 248 226 215 206 202 195 187 185 186 183 181 183 180 178 173 175 186 186 179 179 180 179 173 179 186 188 191 205 226 244 174 165 179 187 183 164 155 170 174 170
165 138 152 185 221 276 298 237 256 266 247 219 202 191 182 181 185 189 193 190 189 186 182 180 184 190 186 186 190 188 183 182 191 193 187 195 205 216 209 189 188 196 189 178 158 157 194 173 183
139 160 155 131 149 290 285 288 301 307 350 174 182 179 186 188 189 193 193 189 189 188 188 186 186 188 189 188 186 187 187 187 191 188 183 191 201 207 191 185 180 192 184 167 149 166 208 174 188
135 140 105 120 140 251 295 282 257 268 263 242 202 200 199 191 191 193 191 189 190 190 186 182 184 189 191 187 189 192 192 192 186 177 180 185 191 193 178 182 184 193 192 170 155 163 186 157 196
113 106 110 115 148 158 246 270 229 218 219 221 222 209 199 191 192 193 194 190 183 174 175 179 183 184 185 186 187 188 187 185 179 183 190 190 186 182 187 193 190 193 203 192 171 187 177 179 224
156 162 148 151 200 171 179 264 270 221 219 214 220 210 199 193 190 188 184 175 172 176 179 181 182 185 188 183 179 187 182 174 179 190 193 187 186 187 187 186 189 202 203 190 184 201 192 196 213